Погода в Логдузе

Россия / Вологодская область     59°59′40″N   44°43′44″E
темп.,
°C
ветер,
м/с
пор.,
м/с
влажн.,
%
обл.,
%
осадки,
мм/ч
давл.,
гПа
погр.,
м
24 мая, вт
вт2400:00−6зсз1110077 0.0 100020
03:00−1с0199100 0.2 100068
06:000сз1298100 0.7 1001207
09:00+2с2399100 1.4 1002180
12:00+3с2296100 0.7 1004289
15:00+5с238085 1.3 1006862
18:00+5с248698 0.7 1007664
21:000ссз259861 1.1 100982
25 мая, ср
ср2500:00−1сз259960 0.0 1010106
03:000ссз1410095 0.1 1010129
06:00+2зсз2498100 0.0 1010177
09:00+3зсз3699100 1.4 1010569
12:00+4сз4898100 1.0 1010936
15:00+3ссз2699100 2.9 1010691
18:00+4сз259699 0.6 1010614
21:00+3сз2699100 0.8 1009377
26 мая, чт
чт2600:00+2сз2599100 0.1 1009328
03:00+2сз24100100 0.2 1008228
06:00+3зсз2398100 0.0 1008272
09:00+4зюз229599 0.1 1007436
12:00+4юз2497100 0.1 1006416
15:00+7зюз238391 0.3 1006789
18:00+6зюз249271 0.4 1004311
21:00+3з239647 0.5 100567
27 мая, пт
пт2700:00+3ю1193100 0.0 100316
03:00+3юв2496100 0.0 1002119
06:00+5юв3794100 0.0 1000311
09:00+8вюв4679100 0.0 999999
12:00+5в4996100 0.2 999518
15:00+7всв3797100 1.3 998968
18:00+6св2699100 2.5 998348
21:00+6с23100100 4.1 999125
28 мая, сб
сб2800:00+6сз23100100 1.4 1000105
03:00+5з24100100 1.7 1001182
06:00+6юз139894 0.1 1001135
09:00+10ююв358086 0.1 1000846
12:00+9вюв4995100 1.2 997906
15:00+8вюв51298100 8.9 993923
18:00+9ююз71291100 1.1 9931174
21:00+6юз81895100 2.5 9951502